Location: Dover
(39.1580°N, 75.5250°W)
Time: 16:45:44
(UTC-04:00)

Daily predictions for brighter satellites

Satellite Brightness Start Highest point End
(mag) Time Altitude Azimuth Time Altitude Azimuth Time Altitude Azimuth
Cosmos 1908 Rocket 4.0 20:40:04 10° SSE 20:44:12 41° E 20:48:22 10° NNE
SL-27 R/B 3.3 20:46:26 10° NNW 20:49:58 52° WSW 20:53:25 10° S
Meteor 2-10 Rocket 4.3 20:45:17 10° NNW 20:51:00 65° W 20:56:31 10° S
Cosmos 1782 2.8 20:51:11 10° N 20:55:14 89° ENE 20:59:17 10° S
Cosmos 2341 Rocket 4.4 20:50:35 10° SSE 20:56:28 44° E 21:02:20 10° NNE
SEDSat Delta rocket 4.3 20:54:29 10° SW 20:58:07 23° S 21:01:13 11° ESE
Cosmos 1833 Rocket 4.3 20:55:08 10° N 20:59:06 19° NE 21:03:03 10° E
Envisat 3.6 20:55:25 10° SE 21:00:05 39° ENE 21:04:47 10° N
Cosmos 1844 Rocket 3.5 20:55:59 10° SW 21:01:32 56° WNW 21:07:05 10° NNE
Cosmos 1825 2.5 20:59:26 10° SSE 21:03:05 47° E 21:06:46 10° NNE
FENGYUN 3A 4.3 20:57:53 10° S 21:03:11 59° W 21:08:31 10° NNW
Meteor 2-6 Rocket 4.4 20:57:37 10° N 21:03:34 84° W 21:09:20 10° S
deb Chang Zheng 4 4.1 21:00:56 10° NNE 21:05:06 38° E 21:09:14 10° SSE
Cosmos 2278 Rocket 2.2 21:00:37 10° SSW 21:06:16 77° ESE 21:11:57 10° NNE
Atlas Centaur 2 3.2 21:05:33 10° SW 21:07:28 14° SSW 21:09:20 10° SSE
ERS-1 Rocket 3.0 21:04:06 10° SSE 21:09:06 70° ENE 21:14:08 10° N
Cosmos 1420 Rocket 4.1 21:07:12 10° S 21:12:18 55° ESE 21:17:24 10° NNE
Cosmos 1844 4.4 21:07:24 10° SW 21:13:05 62° WNW 21:18:52 10° NNE
H-2A R/B 2.5 21:09:40 12° SE 21:13:24 44° ENE 21:17:23 10° N
ISS -1.2 21:11:14 10° W 21:14:10 30° NNW 21:17:07 10° NE
Timation 2 Rocket 4.2 21:08:23 10° NNW 21:14:12 51° ENE 21:19:05 15° SE
Cosmos 1140 Rocket 3.7 21:11:21 10° N 21:16:25 55° ENE 21:20:40 15° SE
APEX 3.6 21:13:35 10° S 21:17:20 55° ESE 21:22:17 10° NNE
Cosmos 2154 Rocket 4.0 21:12:03 10° S 21:18:16 85° E 21:24:29 10° N
Okean 3 3.6 21:14:18 10° N 21:18:31 57° E 21:22:11 13° SSE
Cosmos 1939 Rocket 2.8 21:15:00 11° SSE 21:18:36 64° ENE 21:22:31 10° N
Cosmos 407 Rocket 4.3 21:13:40 10° NNW 21:18:47 51° WSW 21:23:55 10° S
Cosmos 489 Rocket 4.5 21:16:19 10° NNW 21:22:31 69° ENE 21:27:54 14° SSE
Abrixas 2.6 21:19:54 10° SW 21:22:50 49° SE 21:25:48 10° ENE
Cosmos 1238 Rocket 2.6 21:19:30 10° N 21:23:00 70° E 21:26:52 12° SSE
COSMOS 2487 2.5 21:19:24 10° NNW 21:23:02 87° WSW 21:25:58 15° SSE
Cosmos 2082 Rocket 2.9 21:22:02 10° N 21:27:21 39° ENE 21:30:58 19° ESE
SPOT 5 3.4 21:23:32 15° SE 21:27:41 51° ENE 21:32:52 10° N
Lacrosse 5 2.9 21:33:31 10° S 21:37:32 24° ESE 21:41:34 10° ENE
Cosmos 1184 Rocket 3.3 21:34:45 10° SSW 21:38:02 60° W 21:41:22 10° N
Intercosmos 25 3.0 21:38:00 20° SSE 21:40:10 54° E 21:43:16 10° NNE
Cosmos 2366 rocket 4.4 21:37:33 17° SSE 21:41:57 42° E 21:47:52 10° NNE
H-2A R/B 3.8 21:40:11 15° E 21:42:18 19° ENE 21:45:52 10° NNE
Cosmos 2297 3.6 21:39:16 10° SSW 21:44:57 81° ESE 21:50:42 10° NNE
MetOp-B 4.2 21:43:40 22° SSE 21:47:07 63° ENE 21:52:24 10° N
Meteor 1-14 Rocket 4.2 21:43:49 11° S 21:49:08 63° E 21:54:39 10° NNE
Meteor 2-13 Rocket 4.4 21:45:19 10° S 21:51:29 89° WNW 21:57:40 10° N
Okean 2 Rocket 3.3 21:48:15 10° SSW 21:52:38 69° W 21:57:02 10° N
SPOT 1/Viking Rocket 3.8 21:55:17 29° SE 21:57:44 54° ENE 22:02:49 10° N
NOSS 8 (E) 4.3 21:58:44 10° SSW 22:02:11 86° SE 22:05:50 10° NE
Cosmos 1242 Rocket 3.2 21:59:18 10° NNW 22:02:55 55° W 22:04:45 26° SSW
USA 229 DEB 3.8 21:55:58 10° NNW 22:03:05 71° NE 22:07:00 29° SE
USA 229 3.9 21:56:04 10° NNW 22:03:11 70° NE 22:07:06 29° SE
Cosmos 1850 Rocket 4.2 22:01:05 10° NNW 22:06:23 69° WSW 22:09:25 26° S
ARGOS 3.2 22:09:05 35° SE 22:11:18 64° ENE 22:16:36 10° N
YAOGAN 6 2.5 22:10:46 51° S 22:11:34 76° WSW 22:15:06 10° NNW
Cosmos 2369 Rocket 4.0 22:14:07 15° ENE 22:14:07 15° ENE 22:15:53 10° ENE
Cosmos 1975 Rocket 4.3 22:09:01 10° NNW 22:13:03 39° W 22:16:09 16° SSW
Cosmos 2218 Rocket 4.0 22:08:10 15° S 22:13:40 88° E 22:20:07 10° N
Lacrosse 5 rocket 1.0 22:10:00 10° SSW 22:13:56 64° SE 22:17:41 10° NE
GPS 2-05 Rocket1 3.7 22:10:44 10° W 22:13:49 38° SSW 22:13:49 38° SSW
OAO 3 Rocket 3.4 22:09:47 10° WSW 22:14:36 52° S 22:15:30 45° SE
PSLV R/B 3.8 22:16:18 44° WSW 22:16:32 45° W 22:19:23 10° NNW
SL-08 RB Rocket 3.9 22:15:38 45° SE 22:16:46 58° ENE 22:21:20 10° N
CZ-4 R/B 3.8 22:14:33 10° NNE 22:19:10 58° ESE 22:20:06 48° SSE
Meteor 2-8 Rocket 4.4 22:14:01 10° N 22:20:11 70° E 22:22:43 37° SSE
Cosmos 1959 Rocket 4.5 22:16:51 15° S 22:21:57 79° W 22:28:05 10° N
CZ-4 SHROUD 4.2 22:23:32 39° WSW 22:23:47 40° W 22:26:43 10° NNW
Gbstr 26 Del rocket 4.1 22:21:13 10° NW 22:26:04 41° NNE 22:27:30 31° ENE
Cosmos 1536 Rocket 3.5 22:21:37 10° N 22:26:08 85° E 22:27:02 57° SSE
AVUM R/B 3.4 22:22:47 10° NNW 22:26:05 78° NNW 22:26:05 78° NNW
Cosmos 1727 Rocket 3.9 22:21:44 10° N 22:27:56 80° E 22:30:27 39° SSE
Landsat 7 4.0 22:28:19 49° ESE 22:29:02 54° ENE 22:33:41 10° N
Cosmos 1331 Rocket 3.8 22:27:09 39° S 22:29:03 74° ESE 22:34:12 10° NNE
IGS 5A 4.5 22:32:36 33° ENE 22:32:36 33° ENE 22:36:05 10° N
DELTA 2 DEB (DPAF) 4.2 22:34:27 57° E 22:34:45 58° ENE 22:39:09 10° N
CZ-4C R/B 3.6 22:36:09 56° ENE 22:36:09 56° ENE 22:40:04 10° N
OAO 1 Rocket 4.5 22:33:11 10° W 22:38:22 56° S 22:38:33 55° S
Cosmos 1110 Rocket 4.0 22:35:43 27° SSW 22:38:39 79° WNW 22:43:53 10° NNE
Meteor 1-20 Rocket 4.1 22:39:25 40° S 22:41:34 88° W 22:47:06 10° N
Cosmos 1833 Rocket 2.9 22:37:56 10° NNW 22:43:30 63° WSW 22:45:06 44° SSW
Terra 2.0 22:44:32 54° E 22:44:44 54° ENE 22:49:23 10° N
USA 245 4.3 22:46:36 36° WSW 22:46:58 37° W 22:50:54 10° NNW
Cosmos 1339 Rocket 4.4 22:41:47 10° N 22:47:59 86° W 22:50:00 46° S
NOSS 3-1 (C) 4.3 22:42:25 10° NNW 22:49:54 59° NE 22:53:01 38° ESE
ISS 0.1 22:50:34 10° NNW 22:51:26 11° N 22:52:18 10° N
Cosmos 1025 Rocket 4.4 22:48:57 10° NNE 22:52:00 28° NE 22:52:00 28° NE
DMSP B5D2-2 4.0 22:47:51 10° NNE 22:53:03 65° ESE 22:53:13 65° ESE
Cosmos 1821 Rocket 4.2 22:57:21 50° ESE 22:57:49 51° E 23:03:47 10° NNE
USA 234 3.5 22:52:33 10° NE 22:58:06 46° ESE 22:58:06 46° ESE
Meteor 2-21 4.5 22:58:14 55° ESE 22:58:49 58° E 23:04:54 10° NNE
Cosmos 1809 Rocket 4.4 23:03:31 61° SE 23:04:09 64° E 23:10:17 10° NNE
Cosmos 1300 Rocket 3.8 23:04:46 63° W 23:04:51 63° W 23:09:17 10° N
Cosmos 1934 Rocket 4.2 23:05:08 47° E 23:05:08 47° E 23:10:50 10° NNE
Spot 4 3.9 23:06:34 67° NE 23:06:34 67° NE 23:11:10 10° N
Cosmos 1486 Rocket 3.9 23:03:47 10° NNW 23:09:08 87° WSW 23:09:19 83° SSW
Cosmos 1354 Rocket 4.4 23:05:27 10° N 23:10:29 50° ENE 23:10:29 50° ENE
Okean 1 4.2 23:07:11 10° NNW 23:10:39 46° WNW 23:10:39 46° WNW
Cosmos 2082 Rocket 3.6 23:06:28 10° NW 23:11:14 28° WSW 23:12:49 25° SW
Cosmos 2285 Rocket 4.0 23:12:34 59° ESE 23:12:35 59° ESE 23:18:51 10° NNE
Okean 1 Rocket 3.5 23:13:53 58° WNW 23:13:53 58° WNW 23:18:11 10° N
Cosmos 1812 4.2 23:12:09 10° NNW 23:15:11 32° WNW 23:15:11 32° WNW
Cosmos 2123 Rocket 4.4 23:11:45 10° N 23:17:46 47° ENE 23:17:57 47° E
Lacrosse 5 2.5 23:15:12 10° WSW 23:20:11 54° NW 23:25:11 10° NE
Genesis I 4.5 23:21:07 41° NW 23:21:07 41° NW 23:24:34 10° NNE
H-2A R/B 2.4 23:20:50 55° WSW 23:21:16 56° W 23:26:28 10° NNW
Meteor 2-4 Rocket 3.9 23:21:13 10° N 23:26:19 59° ENE 23:26:19 59° ENE
Meteor 2-15 Rocket 4.5 23:34:08 10° N 23:40:05 67° ENE 23:40:05 67° ENE
Meteor 2-14 Rocket 4.3 23:42:33 87° SW 23:42:36 88° W 23:48:48 10° N
ASTEX 1 4.2 23:39:42 10° N 23:44:25 46° WNW 23:44:25 46° WNW
Meteor 2-15 4.3 23:40:08 10° N 23:46:10 86° NNE 23:46:10 86° NNE
Iridium 4 Rocket 3.8 23:43:34 10° N 23:49:23 74° WNW 23:49:23 74° WNW
Lacrosse 5 rocket 3.9 23:50:50 10° WNW 23:53:26 17° NNW 23:56:00 10° N
